Wind_Speed
25 24 23 21 20 19 18 17 16 15 14 13 12 11 10 9 9 10 11 12 12 13 15 16 16 17 18 18 19 20 20 22 23 24 25 25 26 27 28 29 29 30 31 32 32 34 36 35 34 33 30 26 23 19 16 9 3 3 8 9 9 8 7 5 5 4 5 5 4 3 3 2 1 1 1 2 4 5 6 7 8 9 10 12 13 14 15 15
28 27 26 25 23 22 21 20 19 18 17 15 14 14 13 11 10 10 11 12 12 13 14 15 16 16 17 17 18 19 19 20 21 22 23 24 25 25 26 27 28 28 29 30 31 32 34 36 35 34 32 29 25 23 20 15 8 3 4 8 9 8 6 6 6 6 6 6 5 4 4 4 4 4 3 2 4 5 6 7 7 8 8 8 8 9 9 10
32 31 29 28 26 25 24 22 21 20 19 18 17 16 15 14 13 11 12 12 13 13 14 15 15 16 16 17 17 18 18 18 19 20 21 22 23 24 25 26 27 27 28 28 30 31 32 35 35 35 33 30 27 25 23 20 14 8 2 5 9 9 9 9 8 8 7 7 7 5 5 6 6 5 5 4 5 6 7 8 8 8 8 7 6 5 6 6
35 34 33 31 30 28 27 25 24 23 22 21 20 19 18 17 16 14 13 13 13 14 15 15 16 16 16 16 16 17 17 17 18 18 19 20 21 22 23 24 25 26 27 27 28 29 31 32 34 34 33 31 29 26 24 22 18 11 6 4 6 9 11 11 10 9 9 9 8 7 6 7 7 6 5 5 5 6 6 8 7 7 7 6 5 4 3 3
38 37 36 35 34 32 31 29 27 26 24 23 23 22 20 19 19 17 16 15 14 14 15 16 16 16 16 16 16 16 17 17 17 17 17 18 19 21 22 22 23 24 25 26 26 28 29 30 32 33 33 31 30 28 25 24 21 15 10 6 4 8 11 12 11 11 11 11 10 8 6 7 7 6 5 4 5 5 5 6 6 5 5 4 4 3 2 2
39 39 38 38 37 36 34 33 31 29 28 26 25 24 23 21 21 20 19 18 17 16 16 16 17 17 17 16 16 16 16 16 16 16 16 17 18 19 20 21 22 23 24 25 25 26 27 28 30 31 32 31 31 30 28 26 24 19 15 10 5 5 9 11 10 12 13 13 12 10 8 7 7 7 5 3 3 5 5 4 4 2 2 2 2 2 2 2
39 39 39 39 39 38 37 36 35 33 31 30 28 27 26 24 23 23 21 20 19 18 17 17 18 18 18 17 16 16 16 16 16 16 16 16 16 17 18 19 20 21 22 23 24 24 25 26 27 29 30 31 31 31 30 28 26 24 20 15 10 6 6 8 9 11 12 13 14 13 10 8 8 7 4 1 1 3 4 3 2 0 1 1 1 1 1 1
40 39 39 39 39 39 39 39 38 37 35 33 32 30 29 27 25 25 24 23 22 20 19 18 19 19 19 19 18 16 16 16 16 16 16 15 16 16 17 18 18 19 20 21 22 23 23 24 26 27 28 30 31 30 31 29 27 26 24 20 16 12 9 7 8 10 11 12 13 14 12 9 8 6 3 0 1 2 4 2 1 1 2 2 2 2 2 3
41 40 40 40 39 39 39 39 39 39 38 36 35 34 33 31 29 27 27 25 24 23 22 20 20 20 20 20 20 18 16 16 16 16 16 15 15 15 15 16 17 18 19 19 20 21 22 22 24 25 26 28 29 29 30 31 29 27 25 23 21 19 15 12 10 10 10 12 13 13 12 10 8 7 4 2 2 0 1 1 2 3 3 3 3 4 5 5
44 43 42 41 40 40 39 40 40 40 40 39 38 36 36 35 33 31 29 28 27 25 24 23 22 22 22 22 21 20 18 17 16 16 16 16 15 15 15 15 16 16 17 18 19 19 20 21 21 22 23 25 26 27 28 29 29 28 26 24 23 23 22 18 15 13 11 11 12 12 11 9 7 5 2 2 3 3 4 5 4 5 5 5 5 6 7 7
48 46 45 44 42 41 40 40 40 40 41 40 40 39 38 37 37 35 33 31 30 28 27 26 24 23 23 24 23 21 20 18 17 17 16 16 15 15 14 14 15 15 16 16 17 18 18 19 19 20 21 22 23 26 26 27 28 29 27 25 24 24 25 23 21 18 15 13 12 11 10 8 5 2 0 1 3 4 6 6 5 6 6 6 6 7 7 8
52 50 49 47 46 44 43 42 41 41 41 41 41 40 39 39 39 38 36 34 33 31 29 28 27 26 25 26 25 23 22 20 18 18 17 16 16 15 15 14 14 14 14 15 16 16 17 17 18 18 19 20 21 23 25 26 26 27 28 27 25 24 24 24 23 21 18 16 13 10 8 6 4 2 2 1 4 5 5 5 5 6 6 6 8 8 9 9
55 54 52 51 50 48 46 45 43 42 42 42 42 42 41 40 40 40 39 38 36 34 32 31 30 29 27 27 27 25 23 22 20 19 18 17 17 16 16 15 14 14 13 14 14 15 16 16 17 17 17 18 20 21 23 24 24 24 26 27 27 25 24 24 23 21 19 15 13 11 8 5 4 3 3 3 6 7 7 7 7 7 8 9 11 11 10 10
58 57 56 55 53 52 50 48 47 45 44 43 43 43 42 41 40 41 41 40 39 37 35 33 33 32 30 30 29 26 25 25 23 21 19 18 18 17 17 16 14 14 13 13 13 14 14 15 15 16 16 17 18 19 20 21 22 22 23 24 26 25 24 24 23 22 20 17 15 13 11 9 7 5 4 5 7 8 9 10 10 9 10 10 11 11 11 11
62 61 59 58 57 55 53 52 51 49 48 47 45 45 44 43 42 42 42 41 41 40 38 36 36 35 33 33 31 28 29 27 25 23 21 20 19 18 18 17 16 15 14 13 12 13 13 13 14 14 15 15 15 15 16 18 19 20 20 21 23 24 24 23 23 23 21 19 17 15 13 13 12 11 9 7 8 9 9 9 10 10 10 10 10 10 11 11
65 64 63 62 60 59 57 55 54 52 51 50 49 48 46 45 43 43 43 42 41 41 40 39 39 38 36 36 33 30 31 29 26 25 23 22 21 20 19 18 17 16 15 14 12 12 12 13 13 13 13 13 13 13 14 15 16 17 18 19 19 21 22 22 22 23 22 22 20 18 16 14 13 13 12 10 9 9 8 9 10 10 10 10 9 9 10 10
70 68 67 66 65 63 61 59 57 56 55 54 53 52 50 48 45 44 44 43 43 42 42 41 41 41 39 39 34 31 32 31 30 29 26 25 24 22 20 19 18 17 16 16 14 12 12 12 12 12 12 12 12 12 12 12 13 14 15 17 18 18 19 20 20 20 21 21 21 20 19 17 16 15 15 14 12 11 10 11 12 11 11 9 8 8 9 10
74 73 71 70 69 67 66 64 61 60 58 57 56 55 54 51 49 47 46 45 44 44 43 42 42 42 41 41 37 34 36 35 33 31 29 28 27 24 22 21 20 19 17 17 16 14 12 12 12 11 11 11 11 11 11 10 10 11 12 14 16 17 17 17 17 17 17 18 19 19 19 18 17 16 16 16 16 14 13 13 12 13 13 11 10 9 9 11
77 76 75 74 72 71 70 68 66 64 62 60 59 59 57 54 52 50 48 48 47 46 45 44 44 43 43 42 40 38 38 37 36 34 32 31 29 26 24 23 22 21 19 18 18 16 14 13 12 11 11 11 11 10 10 9 9 9 10 11 13 14 15 15 15 14 14 14 15 15 16 17 16 16 16 16 16 15 14 14 13 13 13 12 12 11 11 11
78 78 77 77 76 74 73 72 70 68 66 64 63 62 60 57 56 54 52 52 51 49 46 45 46 44 43 42 41 40 40 39 39 37 35 33 32 29 27 26 24 23 21 20 19 18 16 15 14 13 11 10 11 11 10 10 9 8 8 8 10 11 11 12 13 13 13 12 12 11 12 13 14 14 14 14 14 13 13 12 12 12 12 11 11 11 11 11
77 78 78 78 77 77 76 74 74 72 70 68 66 65 63 61 59 56 55 55 53 51 48 48 49 46 44 43 42 42 42 42 41 39 38 36 34 32 31 29 28 26 23 22 22 20 19 17 16 15 13 11 11 11 10 10 10 9 8 6 6 7 8 9 9 10 11 11 11 10 9 10 12 12 12 12 11 11 11 10 10 10 10 10 10 10 10 10
78 78 77 77 77 78 77 76 76 75 73 71 70 68 66 64 62 59 58 58 56 53 52 52 51 48 46 46 45 43 44 45 43 42 42 39 36 34 34 33 31 28 26 25 24 22 21 20 18 17 16 14 12 11 11 11 10 10 9 7 5 5 5 6 7 7 8 9 10 10 8 8 10 11 12 11 11 11 10 10 9 9 10 10 11 11 10 9
78 78 78 77 77 77 77 77 78 77 75 74 73 71 69 67 65 62 60 61 59 56 55 55 54 51 49 48 46 43 45 45 44 44 44 41 38 38 37 35 33 30 28 28 27 25 24 22 21 20 18 17 15 13 12 12 11 10 10 9 7 6 4 4 5 5 6 7 8 8 8 7 6 7 10 10 11 11 11 11 9 9 9 10 11 11 11 10
78 78 78 78 77 77 76 77 78 78 77 76 75 74 73 71 68 65 63 63 62 60 59 59 57 55 53 52 48 44 46 47 46 46 45 42 41 40 40 39 36 32 31 31 30 28 26 25 24 22 20 19 18 16 14 14 13 12 11 11 9 8 7 5 4 4 4 4 5 5 6 6 5 4 6 7 8 9 9 10 9 8 9 10 10 11 12 10
79 79 79 78 78 78 77 77 78 78 77 76 76 76 76 74 72 69 67 65 64 63 62 61 60 57 56 55 50 48 50 49 47 47 45 44 43 42 42 41 39 36 34 34 32 30 28 28 27 25 23 21 20 19 18 16 15 14 14 12 11 11 9 8 6 5 5 3 3 4 4 5 5 4 4 5 7 7 8 9 9 8 9 10 10 11 12 11
80 80 79 79 78 78 77 77 79 78 77 76 76 77 77 76 74 72 69 67 67 67 64 62 62 60 60 58 53 53 54 51 48 48 47 46 45 45 44 43 41 39 37 36 35 33 31 31 30 27 25 23 22 21 20 20 17 16 16 15 14 13 12 11 10 7 6 6 5 4 5 5 5 5 5 5 6 7 7 8 8 8 8 9 9 10 12 13
81 81 81 80 79 79 78 78 79 78 77 77 77 77 77 77 75 74 72 69 69 69 67 64 64 63 63 62 58 57 56 53 51 50 49 49 46 46 45 44 44 42 40 39 37 36 35 34 32 30 27 26 24 23 23 22 20 19 19 17 17 15 13 13 14 11 9 8 7 6 6 7 6 6 7 7 7 7 7 7 8 8 9 9 10 11 12 13
83 82 82 81 80 80 80 79 79 79 76 77 78 77 77 77 76 75 73 71 70 71 69 66 66 66 66 64 60 59 58 57 55 52 52 51 48 47 46 46 46 45 43 41 39 40 38 35 34 32 30 29 28 26 25 25 23 21 21 20 19 18 16 14 14 15 13 11 10 8 7 7 7 8 8 9 9 8 8 8 8 9 10 10 10 12 13 13
85 84 84 83 81 81 82 80 79 79 77 78 78 77 76 76 75 75 73 72 72 72 70 68 68 69 69 65 61 61 62 60 57 55 55 54 50 48 48 48 48 46 45 43 42 43 40 37 37 34 32 32 31 30 28 27 26 24 23 24 23 20 19 17 16 16 17 16 14 11 9 9 9 9 9 10 10 10 10 10 9 10 11 12 12 13 14 15
85 86 85 85 83 82 84 82 80 80 79 78 78 77 76 75 75 74 72 72 72 73 72 70 70 71 70 66 63 63 64 62 61 59 59 58 54 51 50 50 48 47 46 44 44 43 42 41 39 36 35 36 35 33 32 30 28 26 25 26 26 24 23 21 19 18 18 19 18 14 13 11 11 12 12 12 12 12 13 13 12 11 12 13 14 15 16 16
79 84 85 87 86 84 85 84 81 81 80 79 78 77 75 74 74 72 71 73 74 73 72 72 71 72 70 66 63 66 67 64 64 62 61 61 58 54 53 50 48 48 46 44 44 45 45 44 40 39 39 39 38 37 35 33 31 29 28 29 28 26 27 25 23 22 21 22 20 18 16 14 14 15 14 15 15 15 14 15 16 16 14 14 15 16 18 19
71 76 81 86 88 87 88 86 83 83 82 80 79 77 75 74 72 70 72 75 74 73 73 72 72 72 71 67 65 68 69 66 65 64 61 62 60 57 54 51 49 48 46 45 47 48 49 46 43 42 43 42 41 39 37 36 34 31 31 32 30 28 28 29 27 25 25 26 24 22 20 17 17 17 16 17 18 17 18 17 18 19 19 18 16 16 19 21
64 67 73 80 86 90 90 87 85 85 83 82 79 77 76 73 70 71 74 74 73 73 73 73 73 74 73 70 68 71 71 67 67 65 62 63 62 60 57 54 53 51 49 49 51 51 51 49 46 45 45 44 44 42 41 40 37 34 34 34 33 30 30 31 31 29 28 29 28 26 23 21 21 20 18 19 19 18 20 21 21 23 22 21 20 19 20 22
61 61 66 72 80 88 91 89 88 87 85 83 81 78 75 71 70 74 75 74 74 75 74 74 74 74 74 72 71 73 73 69 69 68 65 64 64 62 59 57 55 53 53 53 52 52 52 51 48 46 46 47 47 44 44 44 39 35 36 36 35 34 33 33 33 33 31 31 32 30 27 25 25 23 21 22 21 20 22 23 23 26 27 24 24 24 23 23
60 59 62 67 73 82 88 89 90 90 87 85 82 78 74 72 73 76 76 76 77 78 76 75 75 75 75 74 73 74 73 71 71 71 67 65 65 62 59 58 57 56 56 54 53 53 53 53 49 46 49 51 48 46 47 46 42 38 37 37 39 40 37 35 34 34 34 34 34 33 32 30 29 27 26 25 24 24 25 24 23 27 30 29 27 28 27 25
60 59 62 65 69 75 82 86 90 91 89 87 83 78 74 74 77 78 78 79 81 81 79 76 76 77 76 75 74 73 73 72 73 73 69 66 66 64 61 61 60 58 58 56 56 57 56 54 50 48 52 53 50 50 51 48 44 40 39 40 44 44 39 37 36 36 37 36 36 36 36 34 31 30 30 28 27 27 28 28 26 27 30 31 30 30 30 29
60 60 62 65 67 69 75 81 87 91 91 88 83 78 76 78 80 80 81 82 82 81 79 77 78 77 75 75 74 73 73 74 74 73 70 67 67 67 64 63 62 60 60 59 59 59 57 56 54 52 55 55 52 55 54 48 45 42 42 45 47 44 41 40 40 39 39 38 38 39 39 36 34 34 34 31 30 32 32 31 29 28 30 32 32 33 32 31
62 61 62 65 64 64 68 76 83 88 91 89 84 81 79 81 83 83 84 85 83 82 81 79 78 76 74 74 75 74 73 74 74 73 71 68 68 68 65 64 63 61 62 63 62 60 59 59 58 56 57 56 55 57 54 47 44 44 45 48 47 44 44 44 42 42 43 40 40 41 41 38 37 37 36 33 33 36 38 37 32 30 32 33 34 34 34 33
63 63 63 63 61 61 65 72 78 83 88 87 85 84 83 84 86 86 87 87 84 83 82 79 78 77 75 73 74 75 73 74 75 73 71 69 68 69 68 66 64 64 65 66 64 63 62 62 62 59 59 58 55 55 53 47 46 47 47 48 48 47 47 47 45 46 46 43 42 43 43 41 39 39 38 36 35 37 41 43 39 35 35 36 37 36 34 35
65 65 63 60 58 61 65 68 72 77 83 85 86 87 88 88 89 89 89 88 85 83 81 79 78 77 75 73 74 76 74 75 77 74 71 70 69 70 71 69 67 67 69 69 67 66 64 64 66 63 60 59 55 53 53 51 50 50 50 49 49 49 49 50 49 48 47 46 45 46 45 42 41 40 39 38 37 38 42 46 44 41 39 40 41 39 36 36
66 66 62 57 58 62 63 64 66 71 78 82 86 89 91 91 91 91 91 89 86 84 83 82 80 79 78 76 75 76 76 75 77 75 72 71 70 70 71 72 71 70 72 72 70 68 65 64 68 68 62 58 55 54 56 56 54 53 52 51 51 51 51 52 52 49 47 48 48 49 47 44 42 42 40 40 40 41 44 45 45 46 46 44 43 42 40 39
67 67 61 56 58 62 61 60 63 67 73 79 84 90 93 93 94 93 92 90 88 86 85 84 83 82 81 78 76 76 77 76 76 76 73 72 71 71 72 74 74 74 75 75 72 70 68 66 71 73 65 58 57 57 58 60 58 55 53 52 52 52 52 51 51 50 50 50 51 53 50 45 44 44 42 43 44 44 44 44 45 47 48 48 45 43 43 43
68 67 61 57 59 61 59 59 62 65 70 77 84 90 93 94 95 94 93 91 89 87 86 84 83 82 80 78 76 76 76 76 75 75 74 73 72 73 74 75 76 76 77 77 75 72 71 70 73 75 70 63 61 60 59 60 60 57 54 53 53 54 53 53 53 54 54 52 53 56 53 47 45 45 45 47 48 47 47 46 46 45 46 50 50 45 44 44
69 67 62 58 59 59 57 57 60 64 70 77 84 89 93 94 95 96 94 92 89 88 87 86 85 84 82 81 80 78 77 77 75 74 74 73 72 72 74 76 76 77 77 77 77 74 73 74 75 75 73 67 63 61 60 59 59 58 56 55 55 56 55 56 57 57 56 53 53 57 55 49 46 46 48 50 51 51 50 49 48 46 45 49 52 49 46 46
69 68 64 59 57 57 56 56 59 62 69 76 83 88 92 94 95 96 95 93 91 90 89 88 88 88 86 84 82 80 78 78 77 76 75 73 71 71 73 75 75 75 76 76 76 75 76 77 77 77 76 71 64 63 63 61 59 58 58 58 59 59 58 59 60 59 57 55 55 57 55 51 49 49 51 53 54 54 52 50 49 48 48 50 51 50 49 49
69 69 64 58 55 55 56 56 58 61 67 74 81 87 90 92 94 96 95 94 93 92 91 90 90 88 86 84 83 82 80 80 80 80 79 78 76 75 74 74 73 73 74 75 76 76 78 80 80 79 78 73 68 67 66 64 60 58 60 61 62 61 60 62 62 60 58 57 56 57 55 53 52 53 54 56 57 57 54 51 50 49 51 54 53 51 51 51
70 68 64 58 56 56 57 57 57 60 66 73 79 84 88 90 92 94 95 95 95 95 93 91 89 87 85 84 85 84 83 84 85 84 82 81 79 78 77 75 74 73 73 74 76 78 80 81 81 80 78 74 71 70 68 65 62 60 61 63 64 63 63 63 63 61 61 60 59 59 58 56 55 55 57 58 58 58 56 54 53 52 51 54 55 53 53 54
70 68 64 60 57 57 57 58 58 60 65 71 77 82 86 89 91 93 94 95 96 95 92 91 89 88 88 88 89 88 88 89 88 87 85 82 81 80 78 75 75 74 74 75 77 79 80 80 79 79 78 75 74 72 70 68 66 65 65 66 66 64 63 63 63 62 63 62 62 62 61 59 57 58 60 60 59 58 57 55 56 56 53 52 54 55 55 55
71 68 65 61 58 58 58 59 59 60 64 69 74 80 84 87 90 92 93 94 94 92 92 93 92 91 91 92 91 91 92 93 92 90 88 85 83 81 77 74 74 74 74 76 79 81 80 79 78 78 77 76 74 74 73 72 71 70 69 69 68 65 63 64 65 65 65 65 65 66 63 61 60 61 62 62 60 59 57 55 57 58 56 55 56 55 55 55
72 69 65 61 60 59 59 59 59 61 65 69 73 78 82 85 88 92 93 94 94 92 92 93 92 92 93 94 93 94 95 96 94 92 90 86 83 80 77 76 76 75 74 77 80 80 79 78 78 77 77 76 75 75 75 74 74 73 72 71 70 68 66 65 65 66 68 68 69 69 67 64 63 63 64 63 61 59 57 56 57 59 60 61 59 56 55 55
72 69 65 62 61 61 60 59 60 62 66 70 74 79 82 84 87 90 92 94 93 92 93 93 93 93 94 95 95 96 97 96 93 91 88 85 82 80 79 80 78 76 77 79 81 80 78 78 77 76 76 75 74 74 75 75 75 76 75 72 72 71 70 68 67 69 71 71 72 73 70 68 68 67 66 65 61 59 58 57 58 60 62 63 61 58 57 57
73 70 66 62 62 62 61 61 62 63 66 70 75 80 82 84 87 90 91 92 91 91 92 93 95 96 96 97 97 97 96 93 90 87 84 82 82 81 81 82 80 78 79 82 84 81 79 77 77 77 76 74 73 74 75 76 78 78 76 74 74 75 74 73 72 72 73 73 74 75 73 72 73 72 69 65 62 61 61 59 59 61 62 63 62 60 59 59
Wind_Direction
242 241 240 238 238 239 241 245 249 252 253 257 264 271 278 286 299 309 316 322 328 334 338 344 349 355 359 3 7 13 19 23 25 27 28 28 29 30 29 29 29 30 31 32 33 34 35 35 37 37 35 36 36 34 35 33 29 248 236 215 206 206 201 195 172 151 133 131 134 123 116 115 130 119 110 242 233 228 219 213 220 226 230 234 236 237 237 239
244 244 244 243 241 239 238 240 244 250 254 255 258 265 270 275 283 293 303 310 316 323 328 334 340 345 351 356 360 4 11 18 21 23 25 26 26 28 28 28 28 29 29 31 32 33 35 34 35 37 34 33 35 33 34 34 40 68 224 215 203 203 194 187 169 150 143 141 136 141 148 150 151 140 141 188 200 207 202 185 184 191 199 206 215 220 222 224
246 246 246 246 245 243 241 239 238 241 248 254 257 260 265 270 273 279 289 298 306 312 318 323 329 335 341 347 352 357 3 10 16 20 22 24 24 25 27 28 27 28 28 29 30 32 34 35 34 36 35 32 35 34 34 35 37 55 107 195 193 194 187 180 173 158 153 149 139 146 157 160 164 157 148 149 161 178 183 170 162 165 170 173 181 189 197 202
246 247 248 248 248 248 246 244 242 240 241 246 252 256 260 265 269 272 278 286 295 303 308 313 319 325 331 337 343 349 354 1 8 14 18 20 21 21 23 26 26 26 27 28 29 31 33 35 33 35 36 32 34 37 35 39 40 48 68 119 178 190 187 185 177 155 149 152 147 151 160 161 170 175 154 141 152 162 174 169 153 155 161 161 163 166 177 183
246 247 247 248 249 250 249 248 247 245 242 242 246 250 254 259 264 268 272 277 284 292 299 305 309 315 321 327 333 339 345 351 359 7 12 16 18 18 20 22 25 25 26 26 27 29 31 33 34 34 36 33 33 37 38 42 47 49 62 89 158 188 189 191 181 155 144 144 144 151 150 148 171 183 151 134 162 165 175 175 158 158 163 162 169 176 194 205
247 247 247 247 248 249 250 250 249 249 247 245 244 246 249 252 258 263 267 271 275 282 289 295 301 306 311 316 323 329 335 341 349 357 4 10 14 16 17 19 21 24 25 25 26 28 29 31 33 33 36 35 33 35 38 46 51 52 60 74 104 165 182 190 183 160 146 140 137 137 136 136 155 166 146 112 153 165 181 184 170 166 167 182 188 189 210 226
250 248 248 247 247 248 249 250 250 250 250 249 249 248 248 248 251 257 261 265 270 274 280 286 292 297 302 306 312 318 325 331 339 346 353 1 8 12 14 15 18 20 23 24 24 26 28 29 31 32 34 36 35 35 37 46 52 52 58 64 71 99 148 173 179 169 156 144 135 133 134 136 143 157 171 202 139 162 193 197 186 230 316 274 255 257 260 258
251 251 250 249 248 248 248 248 250 250 250 250 251 251 251 249 248 252 256 259 264 268 272 278 283 289 293 297 301 308 315 321 328 335 343 350 359 6 10 12 14 17 20 23 23 24 26 28 30 30 33 36 36 35 37 45 51 53 59 64 67 74 90 122 151 162 162 154 143 136 133 128 131 137 149 203 5 182 195 182 113 20 342 315 303 310 317 311
251 252 252 251 250 249 248 248 248 249 250 250 250 251 252 252 250 250 252 255 258 262 266 270 276 281 285 289 292 298 304 310 317 324 330 339 348 356 3 8 10 13 16 19 22 23 24 26 29 29 30 35 36 36 38 43 48 52 59 65 67 71 76 88 113 133 148 154 149 140 133 125 115 107 97 69 25 285 214 39 24 358 345 331 320 327 331 326
251 251 252 252 252 251 250 249 248 248 249 249 250 250 251 253 252 251 252 253 255 258 261 264 268 274 278 282 285 290 295 299 307 313 319 327 335 345 353 1 5 9 12 15 19 20 21 24 28 28 28 33 36 38 38 41 46 49 55 61 64 68 72 76 88 102 117 135 143 139 133 125 107 92 91 57 34 23 18 27 21 1 356 352 339 335 335 332
251 251 251 251 251 252 251 251 250 249 249 249 249 249 250 251 252 252 252 252 253 254 257 260 263 267 272 275 279 283 286 290 297 302 308 315 323 332 342 350 357 3 8 11 15 17 19 20 24 27 27 30 35 39 39 40 44 47 51 56 61 65 67 69 73 78 85 96 112 124 125 121 115 113 157 27 32 42 33 24 17 8 4 3 354 349 352 353
251 251 250 250 251 251 251 251 251 250 250 249 249 248 249 249 250 251 251 252 252 252 254 257 260 262 266 270 273 276 279 284 289 292 297 305 312 320 329 338 346 354 2 6 9 12 15 17 20 24 27 27 31 37 40 41 43 46 50 53 58 64 66 67 69 70 72 74 80 96 110 120 143 192 239 23 40 47 36 17 18 24 25 23 13 11 16 15
251 251 251 250 250 250 250 251 251 251 251 250 249 249 248 249 249 249 250 250 251 251 252 254 257 258 261 265 268 271 275 278 279 282 288 295 302 309 316 324 333 342 352 360 4 6 9 13 15 18 23 26 28 34 38 41 43 45 48 51 55 62 67 67 68 69 73 76 76 84 98 117 158 207 208 121 63 51 48 36 34 40 44 34 19 18 25 24
250 250 250 250 250 250 249 249 250 250 251 251 250 250 249 248 249 249 249 249 250 250 250 251 255 256 257 260 263 267 270 270 272 277 283 288 293 300 305 312 320 329 338 349 358 1 3 7 12 13 16 22 26 31 36 39 43 44 46 50 54 60 65 66 66 68 74 84 87 87 91 96 103 109 116 109 71 55 55 45 41 47 45 29 16 16 22 23
249 249 249 250 250 250 249 249 249 249 250 250 251 250 249 249 249 249 249 248 248 249 248 249 252 254 255 256 258 261 264 267 271 275 277 281 285 290 295 301 308 316 325 334 347 354 356 360 6 9 10 16 20 25 32 37 41 44 45 49 53 57 61 64 65 67 71 78 82 83 84 83 85 86 89 95 73 56 53 46 45 43 32 19 14 11 9 13
247 248 249 249 249 249 249 249 248 248 248 249 250 250 250 249 249 249 249 249 249 249 248 247 248 251 253 254 254 257 263 266 269 270 271 274 276 280 284 290 297 305 312 320 331 342 347 350 357 3 5 9 12 17 26 32 37 42 45 48 51 55 59 62 65 66 68 71 74 75 76 76 75 77 78 77 65 53 52 50 43 33 19 12 14 7 357 3
248 247 248 248 249 249 249 249 248 248 248 248 249 249 250 250 249 249 250 250 249 249 248 246 246 248 250 252 252 255 260 261 262 263 265 266 268 272 277 282 289 294 301 308 315 326 335 341 346 354 358 1 1 8 17 24 31 37 42 46 48 52 55 59 62 64 66 69 72 73 75 74 72 72 72 70 65 56 57 56 45 36 30 23 22 15 5 9
248 248 247 247 248 248 248 248 248 248 247 247 248 248 249 249 249 250 250 250 250 250 249 247 246 246 248 251 251 251 254 256 257 260 261 263 265 268 272 276 281 286 292 297 303 311 320 327 334 341 349 352 352 356 3 12 22 30 38 43 45 47 50 53 56 60 63 64 68 71 73 73 72 70 69 71 72 67 61 58 53 48 45 44 42 35 25 20
247 248 248 247 247 247 248 248 247 247 247 247 247 247 248 248 248 249 249 250 250 249 249 249 247 246 246 248 249 249 251 254 256 258 260 262 265 266 269 271 275 279 283 288 293 300 307 313 320 326 336 342 342 344 349 356 5 16 30 40 42 43 46 48 50 54 57 58 61 65 69 71 70 67 67 69 71 69 65 60 57 54 53 53 50 45 37 28
246 247 247 247 247 246 247 247 247 247 246 246 246 247 247 247 248 248 248 249 249 249 250 249 249 247 246 248 249 249 250 252 254 256 258 260 262 264 266 267 269 272 276 281 285 290 296 301 307 312 320 327 331 334 336 341 348 355 11 29 39 42 43 44 46 48 51 53 54 54 59 66 67 66 64 64 65 65 64 59 54 52 49 49 47 44 43 37
247 246 246 246 246 246 246 246 246 245 245 246 245 246 246 246 247 247 248 248 249 250 250 250 250 249 248 248 248 247 248 249 250 252 254 255 257 260 261 262 263 266 270 274 277 283 287 292 297 301 306 312 318 323 326 328 332 336 345 3 23 34 39 41 42 44 44 45 48 48 50 57 61 62 61 59 58 56 56 52 45 40 35 33 31 28 31 35
248 247 246 245 245 246 245 245 245 244 244 244 245 245 245 245 245 245 247 248 249 249 250 250 251 250 248 247 246 246 246 247 248 249 250 251 253 255 257 259 260 263 266 269 272 275 279 284 288 292 296 299 304 310 314 317 320 322 326 332 347 7 20 29 34 40 41 39 42 46 47 47 51 58 59 57 53 48 45 44 42 38 33 29 25 20 19 21
248 247 247 246 245 245 245 245 244 244 243 243 244 244 245 245 245 244 245 247 248 248 249 250 251 250 249 248 248 247 247 248 248 248 250 251 252 253 255 258 259 261 262 265 267 270 274 278 281 285 289 291 295 299 303 306 308 311 312 314 321 330 336 356 9 21 36 38 37 42 45 38 40 53 52 50 49 45 41 38 38 40 36 30 25 22 18 14
247 247 247 246 245 245 244 244 244 244 243 242 242 243 243 243 243 243 243 245 246 247 247 249 250 250 250 249 248 247 247 247 247 248 250 250 250 252 254 256 257 258 258 261 264 266 269 272 275 279 282 285 288 291 293 296 300 302 303 304 307 310 309 310 319 333 359 27 28 27 37 37 39 45 38 36 38 39 34 28 26 28 28 24 16 12 10 4
247 247 246 246 245 245 244 244 244 244 243 242 242 242 242 242 242 242 242 243 244 245 246 247 249 250 250 250 249 247 245 246 246 248 249 249 249 249 250 253 254 255 255 258 260 263 265 269 271 273 276 279 282 284 286 288 292 295 296 298 300 299 298 296 294 294 301 317 349 352 357 17 27 23 20 25 26 24 23 19 17 16 16 16 9 360 0 358
248 247 246 245 245 245 244 243 244 244 243 242 242 241 241 241 241 242 242 242 243 244 245 246 247 248 249 250 248 247 247 247 247 247 247 247 247 247 248 251 252 253 253 255 258 260 262 264 266 268 271 274 276 277 279 281 284 287 289 292 293 292 292 293 291 286 289 291 292 306 316 329 347 350 351 2 11 8 4 6 6 0 359 3 2 353 351 352
248 247 246 245 245 245 244 243 243 243 242 242 242 241 242 241 241 241 241 241 243 244 244 244 245 246 247 247 247 248 249 249 248 247 247 247 247 247 248 249 251 251 252 253 256 257 258 259 262 265 268 270 271 271 272 274 276 279 282 285 287 286 287 289 292 289 288 289 286 286 292 302 313 319 324 330 339 342 340 344 347 345 343 344 345 343 343 342
248 248 247 246 244 245 244 242 243 243 241 242 242 241 241 241 241 240 240 240 241 243 243 242 243 244 245 246 246 247 248 249 249 248 248 248 247 247 247 248 249 250 250 252 253 254 255 258 260 262 264 267 268 268 268 268 270 273 276 279 280 281 282 283 287 289 288 287 284 285 290 294 300 303 308 311 313 316 317 321 326 330 331 331 330 331 334 333
247 247 247 246 244 244 244 242 242 242 241 240 241 240 240 241 241 240 240 240 241 242 242 241 241 243 244 245 245 246 247 248 248 247 248 248 247 246 247 247 248 249 250 251 251 253 256 257 258 260 262 264 265 265 265 265 266 267 270 274 275 277 278 277 278 280 284 284 280 281 286 290 296 297 297 300 304 307 309 311 315 320 322 321 321 322 324 323
247 246 246 246 245 244 244 243 241 241 241 240 240 239 239 240 240 240 240 240 240 241 241 241 241 242 244 244 244 245 246 246 246 246 247 248 247 245 246 247 249 250 251 251 252 254 256 256 257 260 261 262 262 263 263 264 264 264 266 269 271 274 276 275 274 275 277 279 278 278 278 282 288 290 294 298 301 307 311 312 311 313 316 315 317 317 316 315
249 246 245 245 245 243 243 243 241 241 240 239 239 239 238 238 239 239 239 239 239 240 241 241 241 242 243 242 242 244 245 245 245 246 247 249 249 247 247 247 249 251 251 253 254 254 255 255 256 257 258 259 260 260 261 262 262 263 263 264 265 269 273 274 274 275 277 278 277 277 276 277 281 284 291 296 299 302 305 307 308 309 310 310 313 315 313 312
251 248 245 244 244 243 242 242 241 241 240 239 238 238 238 237 237 237 237 238 239 239 240 240 240 241 242 240 239 241 244 244 245 246 246 249 250 249 249 248 248 249 249 250 250 250 251 252 252 252 254 256 258 259 261 261 260 261 262 262 263 264 267 271 272 273 276 276 276 275 275 277 279 281 286 291 294 299 299 299 303 306 306 306 308 308 308 309
255 251 248 245 244 243 241 241 241 240 240 238 238 237 237 236 236 236 237 237 238 238 238 238 239 240 240 239 237 240 242 242 243 244 244 246 248 248 248 247 247 247 247 246 246 247 249 251 250 250 253 255 257 258 260 259 257 258 260 262 264 263 263 266 268 269 270 273 274 274 274 276 277 277 281 284 287 294 296 298 302 301 299 301 304 304 306 308
258 255 252 247 244 243 241 240 240 240 239 238 237 236 236 236 235 236 236 236 236 236 236 236 237 238 239 239 237 239 241 240 242 243 242 244 247 247 248 248 248 248 247 247 249 250 251 252 252 252 252 253 255 256 257 258 256 256 259 262 265 264 261 261 263 266 268 269 272 272 273 274 274 275 277 279 282 287 290 294 300 299 298 301 303 303 305 307
260 259 256 251 246 243 241 239 239 239 238 238 237 235 235 235 235 235 236 235 236 235 235 234 235 236 238 237 237 238 239 239 241 242 241 242 245 246 246 247 247 247 248 248 249 250 251 252 253 252 252 253 254 255 256 257 256 254 257 261 263 261 260 261 262 264 266 267 268 271 272 271 272 275 275 276 281 284 285 288 291 293 296 299 299 300 303 305
261 260 259 256 250 245 241 239 238 238 237 237 236 234 233 234 234 234 234 234 234 235 234 234 234 235 236 237 237 237 239 238 239 241 241 241 243 244 243 244 245 245 246 247 247 249 250 252 252 250 250 252 253 254 253 254 255 254 255 258 259 259 261 263 263 263 264 265 267 268 269 269 271 273 273 275 278 279 280 282 284 287 292 296 298 300 303 306
262 261 261 258 253 247 243 239 237 237 237 236 235 234 232 233 233 233 234 234 234 235 235 234 234 234 235 237 237 237 238 238 238 240 240 239 241 243 243 243 244 244 245 246 246 248 249 250 250 247 248 250 251 252 252 253 255 255 255 256 257 259 262 262 263 263 263 264 264 265 266 268 270 270 271 274 277 278 278 277 280 285 289 292 295 298 301 304
264 262 261 260 256 251 246 241 237 236 235 235 234 233 232 232 233 233 233 233 233 234 234 234 235 235 234 236 237 237 237 238 239 239 239 238 239 242 243 243 244 244 245 246 246 247 248 249 249 248 249 250 250 253 255 256 257 257 256 257 259 261 261 260 261 263 263 263 264 265 265 266 267 269 271 273 275 278 279 278 278 280 283 286 290 292 297 299
265 264 262 261 259 254 249 242 237 235 234 233 232 231 230 231 232 232 232 233 232 233 234 234 235 235 234 234 237 237 236 238 239 238 238 238 237 240 242 242 242 243 244 245 245 246 246 248 249 248 249 251 252 255 258 259 258 257 256 258 260 261 261 261 260 260 262 263 264 265 266 266 266 268 270 272 274 277 280 280 279 278 279 282 284 285 290 295
266 265 263 262 260 257 251 244 238 235 233 232 230 229 229 229 230 231 232 232 232 233 233 234 235 235 235 234 235 238 237 237 239 238 237 237 236 237 240 240 240 241 243 244 244 245 245 247 250 249 248 251 253 256 259 258 255 255 256 257 258 260 261 261 260 259 262 264 264 264 265 266 267 267 269 271 272 274 276 278 280 281 279 279 280 283 286 289
267 266 264 262 261 258 253 247 240 235 232 230 228 228 228 228 229 230 231 231 231 231 231 231 232 233 233 232 233 236 237 236 238 238 237 237 236 236 238 239 239 240 242 243 243 245 245 247 250 250 248 249 252 253 255 255 254 254 255 256 257 258 259 260 262 262 264 265 265 264 264 265 267 269 270 271 271 271 271 274 279 282 281 280 281 285 286 287
267 267 264 262 261 258 253 248 241 235 231 229 227 226 227 227 228 229 230 230 230 230 231 231 231 231 232 232 232 234 236 236 237 238 237 236 236 236 237 238 239 239 241 243 243 244 245 245 248 250 248 246 248 249 251 254 255 254 255 257 258 259 259 261 262 263 263 264 265 265 264 265 267 269 271 271 270 269 269 271 273 276 280 282 281 282 284 286
267 267 264 262 261 259 254 249 242 235 229 227 225 225 225 226 227 228 229 229 230 230 231 231 232 233 233 233 232 233 236 237 238 239 239 237 236 236 236 237 238 239 240 242 243 243 244 245 246 249 250 246 246 247 249 253 256 257 257 258 260 261 261 262 262 262 261 262 264 266 266 265 267 269 271 271 270 270 269 269 269 271 276 280 280 279 281 283
267 266 264 262 261 259 256 250 244 236 229 226 224 224 224 224 225 227 227 228 229 229 230 230 231 232 232 232 232 231 233 235 236 237 239 238 237 237 238 238 239 240 240 242 243 244 245 246 247 249 250 249 248 249 249 251 255 258 260 260 260 260 261 261 261 261 261 261 263 265 266 267 267 268 270 270 270 270 270 271 272 273 274 276 279 281 282 282
266 265 264 262 261 261 258 252 245 237 231 226 224 223 223 223 224 225 226 227 228 228 229 229 229 230 230 230 231 232 232 234 235 234 236 237 236 236 238 238 239 240 241 242 243 244 244 245 246 248 250 250 249 249 250 250 251 254 257 258 258 258 259 260 261 262 264 264 264 265 267 268 267 266 267 268 269 269 269 271 273 276 276 275 277 281 282 283
264 264 264 263 262 261 258 253 246 238 232 228 225 223 223 223 223 225 225 225 226 227 228 229 229 230 231 231 232 232 232 233 235 234 234 234 233 233 234 236 238 239 241 242 243 243 243 245 246 247 249 250 250 249 250 251 250 251 253 255 256 258 259 260 262 264 266 267 267 267 268 267 266 265 265 266 267 268 269 270 271 274 276 277 278 280 282 283
262 263 263 262 260 258 255 251 244 237 231 227 225 223 223 222 223 224 225 224 225 226 226 228 229 230 231 231 232 232 232 233 234 234 234 234 235 234 234 235 236 237 239 241 242 243 243 244 246 247 249 250 251 251 251 253 253 252 252 254 256 257 259 261 264 266 267 268 268 267 267 266 266 266 266 266 267 268 270 271 271 271 272 276 280 282 282 282
261 261 261 259 257 256 254 250 243 236 230 227 225 223 222 221 222 223 224 225 225 225 226 227 228 229 229 230 231 231 232 233 234 234 234 234 235 236 236 237 239 239 239 241 242 243 243 245 246 248 249 250 250 251 252 252 252 252 252 253 255 257 260 262 264 265 265 266 266 266 266 266 267 266 266 267 267 268 270 272 273 273 273 274 277 279 281 282
259 259 258 257 256 254 252 249 243 235 228 225 223 223 222 221 221 222 223 224 225 224 225 226 226 227 228 229 229 230 231 232 232 233 234 233 234 236 237 237 239 241 241 242 244 244 245 246 247 248 249 249 250 250 250 251 251 252 252 253 254 256 258 260 262 263 264 264 265 265 266 266 266 267 267 268 269 270 272 273 275 277 277 275 275 276 279 282
257 257 256 255 253 251 250 248 243 235 228 223 220 220 220 220 221 222 222 223 223 223 223 225 226 227 228 229 229 230 231 232 232 233 234 234 235 236 237 237 238 240 241 243 245 246 247 247 248 249 249 250 249 249 250 250 251 252 252 253 255 255 256 258 261 263 263 264 264 264 264 264 265 265 266 267 269 272 274 276 277 278 278 278 277 278 279 279
256 255 253 252 250 249 247 245 240 234 228 222 219 217 217 217 219 221 222 223 223 222 223 223 224 225 227 229 229 230 231 232 233 234 235 236 237 237 237 238 238 239 240 242 243 244 246 247 249 250 250 251 251 251 251 251 251 251 252 253 255 255 255 256 257 259 261 262 264 264 265 265 265 264 265 268 271 274 274 275 276 277 277 278 280 280 280 279
253 252 251 249 247 246 244 241 237 231 226 222 219 217 216 215 217 219 220 222 222 223 224 224 224 224 225 227 228 230 231 233 234 235 237 238 240 239 239 239 239 239 240 242 243 244 244 247 248 249 250 250 251 251 251 250 250 250 251 252 253 254 254 255 255 257 260 262 263 264 265 265 265 266 267 270 272 273 274 274 274 275 277 279 279 279 280 281
Height
11016 11016 11017 11018 11019 11020 11021 11022 11022 11022 11022 11023 11023 11023 11024 11024 11024 11024 11024 11024 11024 11024 11023 11023 11023 11023 11023 11023 11023 11022 11021 11021 11019 11018 11016 11014 11013 11011 11010 11008 11007 11005 11003 11001 10999 10997 10994 10992 10990 10987 10985 10983 10982 10980 10978 10976 10975 10976 10976 10976 10976 10977 10978 10979 10979 10979 10980 10982 10982 10983 10984 10985 10985 10986 10987 10987 10987 10988 10988 10989 10989 10990 10990 10991 10992 10993 10993 10994
11013 11014 11015 11016 11017 11018 11019 11020 11021 11021 11021 11021 11022 11022 11023 11023 11024 11024 11024 11023 11023 11023 11023 11023 11023 11023 11023 11023 11023 11023 11022 11022 11021 11019 11018 11016 11015 11013 11012 11010 11009 11007 11005 11003 11001 10999 10996 10994 10991 10989 10987 10985 10983 10981 10979 10977 10975 10974 10975 10975 10976 10977 10978 10979 10979 10980 10981 10982 10983 10984 10985 10986 10987 10988 10988 10988 10988 10989 10989 10989 10990 10990 10991 10991 10991 10992 10993 10993
11011 11012 11013 11014 11014 11015 11017 11018 11019 11019 11020 11020 11020 11021 11021 11022 11023 11023 11023 11023 11023 11023 11023 11023 11023 11023 11023 11023 11023 11023 11022 11022 11021 11020 11019 11018 11016 11014 11013 11012 11010 11009 11007 11005 11003 11002 10999 10996 10994 10991 10990 10988 10985 10983 10980 10978 10976 10974 10974 10974 10975 10977 10978 10979 10979 10980 10981 10982 10983 10985 10986 10987 10988 10989 10989 10989 10990 10989 10990 10990 10990 10991 10991 10992 10992 10992 10992 10993
11008 11009 11010 11011 11012 11013 11014 11015 11016 11017 11018 11018 11019 11019 11020 11020 11021 11022 11023 11023 11023 11023 11022 11022 11023 11023 11023 11023 11023 11023 11023 11022 11022 11021 11020 11019 11017 11016 11014 11013 11012 11010 11009 11007 11005 11003 11001 10999 10997 10994 10992 10991 10988 10986 10983 10980 10977 10975 10974 10974 10975 10977 10978 10978 10980 10981 10982 10983 10984 10985 10987 10988 10989 10990 10990 10991 10991 10991 10991 10991 10991 10992 10992 10992 10993 10992 10993 10993
11005 11006 11007 11008 11009 11010 11011 11012 11013 11014 11015 11016 11017 11017 11018 11019 11019 11020 11021 11022 11022 11022 11022 11022 11022 11022 11023 11023 11023 11023 11023 11022 11022 11022 11021 11020 11019 11017 11015 11014 11013 11012 11010 11009 11007 11005 11003 11001 10999 10997 10994 10993 10991 10989 10986 10982 10980 10978 10975 10975 10976 10977 10978 10979 10980 10981 10983 10984 10984 10985 10987 10989 10990 10990 10991 10991 10991 10992 10992 10992 10992 10992 10993 10993 10993 10993 10993 10993
11001 11002 11004 11005 11006 11008 11009 11010 11011 11011 11012 11014 11014 11015 11016 11017 11018 11018 11019 11020 11021 11021 11021 11021 11021 11021 11022 11022 11022 11022 11022 11022 11022 11022 11021 11021 11020 11018 11016 11015 11014 11012 11011 11010 11008 11007 11005 11003 11001 10999 10997 10996 10993 10991 10988 10984 10982 10980 10977 10976 10976 10977 10978 10979 10981 10982 10983 10984 10985 10986 10987 10988 10990 10990 10991 10992 10992 10992 10993 10993 10992 10993 10993 10994 10994 10994 10994 10994
10997 10999 11000 11001 11003 11004 11006 11007 11008 11009 11010 11011 11012 11013 11014 11015 11016 11016 11017 11018 11019 11020 11021 11020 11020 11020 11021 11021 11021 11022 11022 11022 11022 11022 11021 11021 11020 11019 11017 11016 11014 11013 11012 11011 11010 11008 11007 11005 11003 11001 11000 10997 10995 10993 10990 10986 10984 10983 10980 10978 10978 10978 10979 10980 10981 10982 10983 10984 10985 10986 10987 10988 10990 10991 10991 10992 10992 10993 10993 10993 10993 10993 10994 10994 10994 10994 10994 10994
10993 10995 10996 10997 10999 11001 11002 11003 11004 11006 11007 11008 11009 11010 11011 11012 11014 11014 11015 11016 11017 11018 11019 11019 11019 11019 11019 11020 11020 11021 11021 11021 11021 11021 11021 11021 11020 11020 11018 11017 11015 11014 11013 11012 11011 11009 11008 11006 11004 11003 11001 10999 10997 10995 10993 10989 10987 10985 10983 10981 10981 10979 10979 10980 10981 10982 10983 10984 10985 10986 10987 10988 10990 10991 10992 10992 10993 10993 10993 10993 10992 10993 10993 10994 10994 10994 10994 10993
10989 10991 10992 10993 10995 10997 10998 11000 11001 11002 11003 11005 11006 11007 11008 11009 11011 11012 11013 11014 11015 11016 11017 11018 11018 11018 11018 11018 11019 11020 11020 11021 11021 11021 11021 11021 11020 11020 11019 11018 11016 11015 11014 11013 11012 11011 11009 11008 11006 11004 11003 11000 10999 10998 10995 10992 10990 10988 10986 10985 10984 10982 10981 10981 10981 10982 10983 10984 10985 10986 10987 10988 10990 10991 10992 10993 10993 10993 10993 10992 10992 10993 10993 10994 10994 10993 10993 10993
10985 10986 10988 10989 10991 10993 10994 10996 10997 10999 11000 11001 11002 11004 11005 11006 11008 11009 11010 11011 11013 11014 11015 11016 11017 11017 11017 11016 11017 11018 11019 11020 11020 11020 11020 11020 11020 11020 11019 11018 11017 11016 11014 11014 11013 11012 11010 11009 11008 11006 11005 11003 11001 10999 10997 10995 10993 10991 10988 10987 10986 10985 10983 10982 10982 10982 10983 10984 10985 10986 10987 10988 10990 10991 10992 10992 10992 10992 10992 10992 10992 10993 10993 10993 10993 10993 10992 10992
10980 10981 10983 10985 10986 10988 10990 10992 10993 10995 10996 10997 10999 11000 11002 11003 11004 11006 11007 11009 11010 11011 11012 11013 11014 11015 11015 11015 11015 11017 11017 11018 11019 11019 11019 11019 11019 11019 11019 11019 11017 11016 11015 11014 11013 11012 11011 11010 11009 11008 11006 11005 11003 11001 10999 10998 10995 10993 10991 10989 10988 10987 10986 10985 10984 10984 10984 10985 10986 10987 10988 10989 10990 10991 10991 10992 10992 10992 10992 10992 10992 10992 10992 10992 10992 10993 10992 10992
10975 10976 10978 10980 10982 10984 10986 10988 10989 10991 10992 10994 10995 10996 10998 10999 11001 11002 11004 11005 11007 11009 11010 11011 11012 11013 11013 11013 11013 11015 11015 11016 11017 11017 11018 11018 11019 11019 11019 11018 11018 11017 11016 11015 11014 11013 11012 11011 11010 11009 11008 11006 11004 11002 11001 10999 10998 10996 10994 10992 10991 10989 10988 10987 10986 10985 10985 10985 10986 10987 10988 10989 10991 10991 10992 10992 10992 10992 10992 10992 10992 10992 10991 10992 10992 10992 10992 10992
10970 10971 10973 10975 10977 10979 10981 10983 10985 10987 10988 10989 10991 10992 10994 10995 10997 10998 11000 11002 11003 11005 11007 11008 11009 11010 11011 11011 11011 11013 11013 11014 11015 11016 11017 11017 11017 11018 11018 11018 11017 11017 11016 11015 11014 11013 11012 11011 11010 11010 11008 11007 11005 11004 11002 11001 11000 10998 10997 10995 10993 10992 10990 10989 10988 10988 10987 10987 10988 10988 10989 10990 10991 10992 10992 10993 10993 10993 10993 10993 10992 10992 10991 10992 10993 10993 10992 10992
10964 10966 10967 10969 10971 10973 10976 10978 10980 10982 10984 10985 10987 10988 10990 10991 10993 10994 10996 10998 10999 11001 11004 11006 11006 11007 11008 11008 11009 11011 11011 11011 11013 11014 11015 11016 11016 11017 11017 11017 11017 11016 11016 11015 11014 11013 11012 11011 11011 11010 11009 11008 11007 11005 11004 11003 11002 11000 10999 10998 10996 10994 10993 10992 10991 10990 10990 10990 10990 10990 10991 10991 10991 10992 10992 10993 10993 10993 10993 10993 10992 10992 10991 10992 10993 10993 10993 10992
10958 10960 10962 10963 10966 10968 10970 10973 10975 10977 10979 10980 10982 10983 10985 10987 10989 10990 10992 10994 10996 10998 11000 11002 11003 11003 11005 11005 11007 11008 11008 11009 11011 11012 11013 11014 11014 11015 11015 11016 11016 11016 11015 11015 11015 11014 11013 11012 11011 11011 11010 11009 11008 11007 11006 11005 11004 11002 11001 11000 10998 10997 10995 10994 10993 10992 10992 10992 10992 10992 10992 10992 10992 10992 10993 10993 10993 10993 10992 10993 10992 10992 10992 10992 10993 10993 10993 10993
10951 10954 10955 10957 10960 10962 10964 10967 10969 10972 10973 10975 10977 10978 10980 10983 10985 10986 10988 10990 10992 10994 10996 10999 10999 11000 11001 11002 11004 11006 11006 11007 11009 11009 11010 11011 11012 11013 11014 11014 11014 11015 11015 11014 11014 11014 11013 11012 11012 11011 11010 11010 11009 11009 11008 11006 11005 11004 11003 11002 11001 10999 10998 10997 10996 10995 10994 10993 10993 10993 10993 10993 10993 10993 10993 10993 10993 10992 10992 10993 10993 10992 10992 10992 10993 10993 10992 10992
10944 10946 10949 10951 10953 10955 10958 10961 10963 10966 10968 10970 10971 10973 10975 10978 10980 10982 10984 10986 10988 10990 10992 10994 10995 10996 10997 10998 11001 11004 11003 11004 11005 11006 11007 11008 11009 11011 11011 11012 11013 11013 11014 11013 11014 11014 11013 11012 11012 11011 11011 11010 11010 11009 11009 11008 11007 11006 11004 11003 11002 11001 10999 10999 10998 10997 10996 10995 10995 10995 10995 10994 10994 10994 10994 10994 10994 10993 10993 10993 10993 10993 10993 10993 10993 10993 10992 10992
10936 10938 10941 10944 10946 10949 10951 10954 10957 10959 10962 10964 10965 10967 10969 10973 10976 10978 10980 10982 10984 10985 10987 10990 10992 10993 10994 10994 10998 11001 11000 11000 11001 11002 11004 11005 11006 11008 11009 11010 11011 11012 11012 11012 11012 11013 11012 11012 11011 11011 11011 11010 11010 11009 11009 11009 11008 11007 11005 11003 11002 11002 11001 11000 11000 10999 10999 10998 10997 10997 10996 10996 10996 10995 10995 10995 10996 10995 10994 10994 10994 10994 10994 10993 10993 10993 10992 10992
10928 10930 10933 10936 10939 10942 10944 10947 10950 10953 10955 10958 10959 10961 10964 10968 10970 10973 10976 10977 10978 10980 10983 10986 10987 10989 10990 10991 10994 10996 10996 10997 10998 11000 11001 11002 11004 11005 11007 11008 11009 11009 11010 11011 11011 11011 11011 11011 11011 11010 11010 11010 11010 11009 11009 11009 11008 11007 11006 11004 11003 11003 11002 11001 11001 11000 11000 11000 10999 10999 10998 10998 10997 10997 10996 10996 10997 10996 10996 10995 10995 10995 10995 10995 10994 10994 10993 10993
10919 10922 10924 10927 10930 10933 10937 10940 10943 10945 10948 10951 10953 10955 10958 10962 10964 10968 10971 10971 10972 10975 10979 10981 10982 10984 10986 10988 10990 10992 10993 10994 10995 10996 10998 10999 11001 11002 11004 11005 11006 11007 11008 11009 11009 11009 11010 11010 11009 11009 11009 11010 11009 11009 11008 11008 11008 11007 11007 11005 11004 11004 11003 11002 11002 11001 11001 11001 11000 11000 11000 11000 10999 10998 10998 10997 10998 10998 10997 10997 10997 10996 10996 10996 10995 10995 10994 10994
10911 10913 10916 10919 10922 10925 10928 10931 10934 10938 10940 10943 10946 10948 10952 10956 10958 10963 10965 10965 10968 10971 10975 10976 10976 10980 10983 10984 10986 10987 10989 10989 10990 10993 10994 10995 10997 10999 11000 11001 11003 11004 11006 11006 11007 11007 11008 11008 11008 11008 11008 11009 11008 11008 11008 11007 11007 11007 11007 11006 11005 11004 11004 11003 11002 11002 11001 11001 11001 11001 11001 11001 11000 10999 10999 10999 10998 10998 10998 10998 10997 10997 10996 10996 10996 10995 10995 10994
10902 10904 10908 10911 10913 10916 10920 10923 10926 10929 10932 10936 10939 10941 10946 10949 10952 10957 10959 10960 10963 10967 10969 10970 10971 10975 10978 10979 10980 10983 10984 10984 10986 10988 10989 10991 10994 10995 10995 10997 10999 11001 11003 11004 11004 11005 11005 11006 11006 11006 11006 11007 11007 11007 11007 11006 11006 11006 11006 11006 11005 11005 11004 11004 11003 11002 11002 11001 11001 11001 11001 11001 11001 11000 11000 11000 10999 10999 10998 10998 10997 10997 10996 10996 10996 10996 10995 10994
10892 10895 10899 10902 10905 10908 10911 10914 10916 10919 10924 10928 10931 10935 10939 10942 10946 10952 10955 10955 10958 10962 10963 10964 10965 10969 10972 10973 10976 10980 10980 10980 10983 10983 10984 10988 10990 10991 10992 10993 10995 10998 11000 11000 11001 11003 11003 11004 11004 11004 11005 11005 11005 11005 11005 11005 11005 11005 11005 11005 11005 11004 11004 11003 11003 11003 11003 11002 11002 11002 11002 11001 11001 11001 11000 11000 11000 11000 10999 10999 10998 10997 10997 10996 10996 10996 10995 10995
10882 10885 10889 10893 10896 10899 10903 10905 10906 10910 10916 10920 10924 10928 10930 10933 10938 10944 10948 10949 10951 10955 10956 10957 10959 10963 10966 10967 10973 10976 10974 10974 10978 10979 10981 10985 10986 10987 10988 10989 10991 10994 10996 10996 10998 10999 11000 11001 11002 11002 11003 11002 11003 11003 11003 11004 11004 11004 11004 11003 11004 11004 11004 11003 11003 11003 11003 11003 11002 11002 11002 11001 11001 11001 11000 11000 11000 11000 11000 10999 10999 10998 10997 10996 10995 10995 10995 10995
10872 10875 10878 10882 10886 10889 10894 10896 10897 10902 10908 10912 10916 10919 10920 10925 10930 10935 10939 10942 10945 10947 10949 10952 10955 10958 10959 10962 10969 10970 10967 10969 10973 10974 10977 10979 10981 10983 10983 10984 10987 10990 10991 10993 10994 10996 10997 10998 10999 11000 11000 11001 11001 11001 11001 11001 11002 11002 11001 11002 11002 11002 11003 11003 11003 11003 11002 11002 11002 11001 11001 11000 11000 11000 11000 11000 10999 10999 10999 10999 10999 10998 10997 10996 10995 10995 10995 10995
10862 10864 10867 10872 10876 10879 10884 10887 10887 10893 10899 10903 10907 10909 10912 10917 10922 10928 10933 10938 10938 10939 10944 10948 10949 10952 10953 10956 10962 10961 10961 10966 10969 10970 10971 10973 10976 10978 10979 10981 10983 10985 10987 10989 10990 10992 10994 10995 10996 10997 10998 10999 10999 10999 10999 10999 11000 11000 10999 11000 11000 11000 11001 11001 11001 11001 11001 11001 11001 11001 11000 10999 10999 10999 10999 10999 10998 10998 10999 10999 10999 10998 10997 10996 10995 10994 10994 10994
10851 10854 10857 10861 10866 10868 10873 10877 10878 10884 10891 10894 10897 10901 10905 10909 10915 10921 10925 10931 10931 10931 10938 10942 10942 10945 10945 10948 10955 10955 10957 10961 10963 10965 10966 10968 10971 10973 10975 10977 10978 10980 10982 10984 10987 10988 10989 10991 10992 10994 10995 10996 10997 10997 10997 10997 10998 10998 10998 10998 10998 10998 10999 10999 10999 10999 11000 11000 11000 11000 10999 10998 10998 10998 10997 10997 10997 10997 10997 10998 10998 10997 10997 10996 10995 10994 10993 10993
10840 10843 10846 10850 10856 10858 10860 10866 10869 10874 10881 10884 10886 10893 10897 10901 10907 10912 10917 10923 10924 10923 10930 10935 10935 10936 10936 10942 10949 10950 10951 10954 10957 10960 10960 10961 10967 10969 10970 10972 10973 10975 10977 10980 10983 10982 10984 10987 10988 10990 10992 10993 10993 10994 10995 10995 10995 10996 10996 10996 10996 10996 10997 10998 10997 10997 10997 10998 10998 10998 10998 10997 10997 10997 10996 10996 10996 10996 10996 10996 10996 10996 10995 10995 10994 10993 10992 10992
10828 10831 10835 10839 10846 10848 10848 10855 10860 10863 10870 10873 10876 10884 10889 10893 10900 10905 10910 10916 10916 10916 10921 10926 10927 10927 10929 10937 10944 10943 10944 10947 10951 10954 10953 10955 10961 10964 10965 10967 10967 10970 10973 10976 10977 10977 10981 10983 10984 10986 10989 10989 10989 10990 10991 10992 10993 10994 10993 10993 10993 10994 10994 10995 10996 10996 10996 10996 10996 10997 10996 10996 10996 10995 10995 10995 10995 10995 10994 10994 10994 10994 10993 10993 10993 10992 10992 10991
10815 10819 10824 10827 10834 10839 10837 10842 10851 10853 10858 10863 10868 10875 10881 10887 10892 10898 10905 10907 10905 10908 10913 10917 10918 10919 10924 10933 10938 10936 10937 10941 10943 10946 10947 10949 10954 10958 10959 10961 10963 10966 10969 10971 10972 10973 10976 10978 10980 10983 10984 10984 10985 10986 10987 10988 10989 10991 10991 10991 10991 10991 10992 10992 10993 10994 10994 10994 10994 10994 10995 10995 10994 10993 10993 10993 10993 10993 10992 10991 10991 10992 10992 10991 10991 10990 10990 10989
10802 10807 10814 10815 10821 10828 10825 10830 10840 10842 10846 10854 10859 10865 10873 10879 10883 10892 10898 10894 10894 10901 10905 10908 10910 10913 10919 10927 10931 10928 10928 10934 10936 10939 10942 10942 10947 10952 10954 10958 10960 10962 10965 10968 10968 10969 10970 10973 10976 10978 10978 10979 10980 10981 10983 10984 10986 10987 10988 10987 10988 10989 10988 10989 10990 10990 10991 10990 10991 10991 10992 10993 10992 10991 10991 10991 10991 10991 10990 10989 10988 10988 10989 10989 10988 10988 10987 10987
10790 10796 10802 10804 10808 10813 10813 10820 10829 10831 10836 10844 10849 10857 10864 10869 10878 10886 10885 10880 10887 10896 10897 10899 10903 10905 10910 10918 10923 10918 10920 10927 10929 10933 10937 10937 10941 10946 10950 10954 10956 10957 10961 10962 10962 10963 10964 10967 10970 10971 10972 10973 10975 10977 10978 10979 10982 10983 10984 10983 10984 10986 10986 10985 10986 10987 10987 10987 10987 10988 10989 10990 10990 10989 10990 10989 10988 10988 10988 10987 10987 10985 10985 10986 10986 10987 10986 10985
10780 10786 10790 10792 10795 10796 10800 10811 10817 10819 10826 10833 10839 10848 10854 10863 10874 10875 10871 10874 10882 10885 10886 10890 10893 10895 10900 10908 10912 10909 10912 10920 10922 10926 10931 10931 10934 10939 10943 10947 10949 10951 10955 10954 10954 10956 10958 10961 10964 10966 10968 10969 10970 10972 10973 10973 10977 10979 10979 10979 10980 10982 10983 10982 10982 10983 10984 10983 10983 10984 10985 10986 10987 10987 10988 10988 10987 10987 10986 10985 10985 10983 10983 10983 10983 10984 10983 10982
10771 10776 10777 10779 10780 10780 10788 10801 10805 10807 10815 10822 10829 10839 10847 10859 10865 10862 10862 10867 10871 10871 10875 10879 10883 10886 10891 10898 10903 10902 10906 10913 10915 10918 10924 10925 10927 10932 10937 10941 10944 10946 10947 10948 10949 10951 10953 10956 10959 10963 10963 10963 10964 10967 10967 10968 10971 10975 10975 10976 10976 10977 10978 10978 10978 10978 10979 10980 10979 10980 10981 10982 10982 10984 10985 10985 10985 10986 10985 10984 10983 10980 10979 10980 10980 10979 10980 10979
10761 10765 10765 10765 10767 10767 10775 10788 10792 10796 10804 10811 10819 10831 10843 10852 10852 10849 10853 10857 10857 10858 10862 10868 10873 10878 10881 10887 10893 10895 10899 10906 10907 10909 10917 10920 10921 10926 10932 10934 10937 10939 10939 10943 10946 10946 10948 10950 10955 10958 10957 10956 10959 10961 10962 10962 10966 10970 10971 10972 10971 10970 10973 10974 10975 10975 10975 10976 10976 10976 10977 10977 10978 10980 10981 10982 10983 10983 10982 10982 10982 10980 10977 10977 10977 10975 10975 10976
10751 10754 10753 10752 10753 10756 10763 10775 10781 10785 10793 10800 10810 10825 10837 10839 10837 10838 10842 10843 10842 10844 10851 10859 10865 10868 10872 10877 10884 10888 10892 10897 10898 10901 10909 10915 10915 10919 10925 10926 10929 10932 10933 10937 10939 10938 10941 10943 10948 10952 10949 10950 10954 10954 10955 10957 10961 10965 10967 10968 10965 10964 10968 10970 10970 10972 10971 10971 10972 10971 10972 10973 10974 10975 10976 10978 10979 10979 10979 10979 10980 10978 10975 10974 10973 10972 10971 10971
10740 10742 10741 10738 10740 10747 10755 10762 10768 10774 10781 10790 10804 10817 10825 10825 10824 10828 10829 10829 10833 10837 10845 10852 10855 10859 10866 10870 10875 10881 10884 10887 10890 10894 10902 10909 10909 10911 10918 10920 10922 10926 10927 10929 10930 10931 10935 10936 10940 10944 10942 10944 10947 10944 10947 10954 10956 10960 10962 10960 10958 10960 10964 10965 10965 10967 10966 10967 10968 10967 10967 10969 10970 10970 10971 10973 10975 10974 10974 10975 10976 10976 10973 10971 10970 10969 10968 10968
10728 10730 10729 10727 10731 10740 10745 10747 10755 10762 10768 10781 10797 10806 10812 10813 10812 10815 10816 10818 10825 10830 10835 10842 10847 10853 10861 10864 10867 10872 10877 10878 10881 10888 10894 10901 10905 10906 10911 10914 10917 10920 10919 10920 10922 10925 10928 10929 10931 10937 10936 10937 10940 10937 10941 10951 10953 10954 10956 10954 10954 10957 10958 10959 10961 10961 10960 10962 10963 10962 10963 10965 10966 10966 10966 10968 10970 10968 10966 10968 10972 10973 10970 10969 10968 10966 10966 10965
10716 10717 10717 10719 10725 10730 10731 10733 10742 10752 10759 10774 10788 10793 10797 10798 10798 10801 10803 10807 10815 10820 10826 10835 10840 10845 10853 10859 10860 10862 10869 10871 10872 10880 10887 10893 10899 10900 10902 10907 10910 10912 10910 10911 10915 10918 10921 10922 10923 10929 10930 10930 10935 10935 10937 10946 10948 10947 10949 10948 10949 10951 10951 10953 10955 10955 10955 10957 10958 10957 10957 10960 10962 10962 10962 10963 10965 10964 10961 10959 10963 10967 10967 10965 10964 10964 10964 10962
10705 10704 10706 10712 10717 10718 10717 10722 10733 10743 10751 10763 10773 10777 10781 10784 10785 10789 10791 10797 10808 10815 10821 10829 10833 10837 10845 10852 10853 10852 10860 10864 10862 10871 10880 10885 10891 10894 10894 10898 10902 10904 10901 10902 10906 10909 10914 10916 10913 10919 10924 10925 10931 10935 10933 10937 10940 10940 10941 10943 10943 10945 10946 10945 10946 10949 10950 10951 10952 10951 10952 10956 10958 10958 10959 10959 10961 10961 10957 10953 10955 10958 10961 10960 10958 10959 10961 10960
10693 10692 10697 10705 10707 10703 10706 10714 10724 10733 10740 10750 10758 10762 10766 10770 10772 10776 10780 10789 10799 10805 10810 10817 10822 10827 10832 10839 10844 10844 10849 10854 10855 10862 10871 10877 10882 10886 10887 10889 10893 10895 10891 10892 10898 10902 10908 10911 10905 10906 10917 10924 10928 10930 10927 10926 10931 10934 10934 10936 10938 10939 10940 10939 10940 10943 10945 10944 10944 10943 10947 10952 10953 10953 10955 10954 10955 10955 10953 10952 10951 10951 10951 10952 10953 10953 10954 10955
10682 10681 10688 10696 10694 10691 10697 10705 10711 10719 10729 10737 10743 10745 10750 10756 10760 10765 10772 10779 10788 10795 10800 10806 10811 10816 10821 10829 10837 10838 10839 10845 10848 10853 10861 10869 10874 10878 10880 10879 10881 10885 10883 10884 10892 10896 10901 10904 10896 10894 10908 10920 10922 10923 10922 10918 10921 10927 10929 10930 10932 10932 10934 10934 10935 10937 10937 10937 10936 10934 10940 10948 10948 10948 10949 10948 10948 10949 10949 10950 10949 10947 10945 10945 10948 10950 10948 10949
10671 10671 10678 10685 10683 10681 10688 10695 10699 10707 10716 10721 10725 10729 10736 10744 10749 10755 10761 10768 10778 10787 10793 10800 10805 10811 10817 10823 10829 10832 10834 10837 10843 10847 10852 10860 10865 10868 10870 10870 10871 10875 10876 10877 10884 10889 10892 10893 10890 10887 10897 10910 10914 10916 10918 10915 10914 10920 10924 10926 10926 10926 10927 10928 10929 10930 10930 10931 10930 10927 10933 10942 10944 10943 10943 10941 10940 10942 10943 10944 10944 10946 10945 10939 10939 10945 10946 10945
10660 10661 10667 10674 10674 10673 10680 10685 10689 10696 10702 10705 10710 10717 10724 10732 10738 10743 10751 10761 10770 10778 10784 10790 10796 10801 10808 10812 10816 10823 10825 10827 10834 10840 10842 10849 10857 10860 10860 10862 10864 10867 10870 10872 10876 10882 10884 10884 10884 10883 10887 10899 10907 10909 10913 10915 10914 10914 10917 10920 10920 10919 10921 10921 10921 10921 10923 10926 10926 10922 10926 10935 10938 10938 10935 10933 10933 10934 10936 10937 10937 10941 10942 10936 10933 10936 10940 10940
10650 10650 10656 10663 10666 10668 10672 10675 10679 10685 10691 10694 10699 10705 10711 10720 10727 10733 10742 10752 10760 10767 10773 10779 10784 10788 10794 10800 10806 10814 10818 10818 10824 10830 10833 10838 10847 10850 10850 10853 10857 10860 10863 10865 10869 10874 10875 10874 10876 10878 10879 10890 10901 10903 10904 10910 10913 10912 10910 10911 10911 10912 10914 10914 10913 10914 10916 10919 10919 10917 10920 10927 10930 10930 10928 10926 10925 10927 10930 10933 10933 10934 10934 10932 10931 10931 10931 10933
10639 10640 10646 10655 10660 10661 10661 10663 10668 10674 10680 10684 10689 10695 10702 10712 10718 10722 10732 10742 10748 10755 10761 10767 10773 10779 10787 10795 10800 10804 10809 10810 10813 10818 10822 10824 10830 10836 10840 10843 10849 10853 10856 10858 10860 10864 10865 10865 10868 10871 10874 10882 10892 10895 10895 10900 10906 10908 10906 10903 10903 10905 10907 10906 10906 10909 10910 10911 10911 10911 10914 10919 10921 10921 10921 10920 10919 10920 10924 10928 10930 10930 10927 10924 10925 10927 10926 10925
10628 10631 10638 10646 10649 10648 10647 10650 10655 10661 10667 10672 10678 10686 10694 10703 10709 10714 10722 10731 10735 10741 10750 10758 10766 10774 10783 10789 10790 10795 10800 10800 10800 10804 10810 10815 10820 10826 10832 10836 10841 10847 10849 10850 10851 10853 10855 10857 10861 10865 10870 10877 10883 10886 10888 10893 10898 10901 10900 10897 10896 10898 10900 10900 10901 10903 10902 10902 10903 10904 10905 10909 10912 10913 10913 10913 10913 10915 10917 10921 10923 10925 10925 10921 10919 10920 10920 10918
10618 10621 10628 10634 10637 10637 10638 10639 10643 10649 10656 10663 10669 10676 10684 10692 10698 10704 10712 10718 10723 10733 10744 10751 10758 10765 10771 10775 10777 10783 10786 10785 10787 10793 10801 10808 10812 10817 10827 10835 10838 10842 10844 10843 10842 10842 10846 10851 10856 10860 10865 10871 10875 10877 10881 10885 10888 10891 10892 10892 10892 10894 10895 10895 10895 10897 10895 10895 10895 10894 10896 10901 10904 10904 10903 10904 10908 10910 10912 10914 10913 10915 10919 10920 10916 10913 10913 10912
10607 10611 10617 10624 10626 10627 10628 10628 10633 10639 10645 10651 10659 10666 10674 10682 10687 10692 10699 10706 10714 10727 10735 10739 10745 10753 10757 10759 10765 10770 10771 10772 10777 10782 10789 10798 10804 10812 10824 10832 10832 10835 10839 10838 10833 10833 10839 10846 10851 10854 10857 10863 10867 10870 10873 10875 10878 10881 10884 10885 10886 10889 10890 10888 10888 10888 10888 10888 10887 10885 10889 10894 10896 10895 10895 10896 10900 10903 10907 10910 10907 10905 10908 10910 10910 10909 10909 10908
10595 10600 10607 10613 10615 10616 10617 10619 10623 10630 10634 10640 10648 10653 10662 10672 10677 10681 10688 10694 10703 10714 10721 10727 10737 10744 10745 10747 10753 10757 10757 10760 10767 10773 10782 10792 10801 10810 10818 10821 10823 10828 10832 10829 10824 10826 10834 10839 10843 10847 10849 10854 10859 10861 10863 10867 10870 10873 10875 10877 10879 10881 10883 10884 10883 10880 10878 10879 10878 10877 10880 10886 10888 10888 10887 10889 10894 10899 10901 10903 10902 10899 10898 10897 10900 10903 10904 10904
10583 10589 10595 10601 10603 10604 10607 10609 10612 10619 10624 10630 10635 10639 10647 10656 10662 10668 10676 10682 10692 10702 10708 10715 10723 10728 10731 10736 10741 10743 10745 10752 10762 10770 10780 10790 10798 10806 10809 10810 10815 10821 10821 10816 10815 10820 10827 10831 10835 10839 10841 10846 10851 10854 10856 10859 10861 10862 10866 10870 10872 10872 10874 10876 10876 10872 10870 10870 10868 10867 10872 10877 10879 10881 10882 10885 10891 10895 10896 10897 10896 10893 10890 10888 10891 10895 10895 10896
10571 10576 10583 10590 10591 10592 10595 10598 10601 10608 10614 10618 10622 10627 10635 10642 10648 10654 10663 10672 10683 10693 10698 10704 10709 10714 10718 10722 10726 10733 10741 10751 10761 10771 10783 10790 10794 10799 10800 10801 10807 10813 10810 10805 10806 10813 10822 10826 10828 10830 10833 10839 10844 10845 10847 10849 10848 10851 10859 10864 10862 10861 10863 10867 10868 10866 10865 10864 10860 10858 10863 10866 10867 10872 10878 10883 10887 10888 10888 10890 10890 10887 10885 10883 10884 10886 10887 10887